Dewpoint
24 28 23 22 21 14 11 9 9 16 27 22 18 18 18 19 24 26 28 28 28 26 33 36 39 40 39 38 38 39 41 41 41 40 39 38 38 39 38 39 40 39 40 42
25 24 28 26 23 18 17 10 10 18 25 20 16 14 16 23 27 29 29 30 30 32 35 37 39 39 40 39 39 39 40 41 42 42 41 41 40 40 40 41 41 41 40 42
25 27 30 23 20 17 22 13 17 19 23 19 19 12 19 26 27 30 31 32 32 32 34 35 35 37 38 38 38 38 40 40 41 43 42 42 42 42 40 39 40 40 41 41
27 30 26 24 21 19 10 28 25 22 17 9 20 -1 6 20 25 27 29 31 32 32 33 34 34 33 32 35 38 37 37 37 38 42 41 41 40 39 39 39 40 40 40 41
26 27 26 24 26 26 23 29 27 27 23 19 16 15 10 19 23 24 26 28 30 32 32 31 30 31 33 36 38 37 36 35 36 37 39 39 38 38 38 38 38 37 38 40
31 33 31 30 31 30 29 23 23 27 25 15 20 19 16 16 22 24 25 28 30 32 27 28 30 32 34 36 37 37 35 35 35 36 36 36 37 37 36 36 36 36 37 38
24 28 32 32 29 30 25 23 15 14 14 15 26 22 18 19 25 25 25 28 31 29 26 29 30 32 33 34 35 33 34 34 34 35 35 35 36 36 36 36 36 36 36 36
16 16 29 32 29 26 24 18 16 2 4 3 16 10 22 24 25 28 28 30 32 26 29 31 32 32 33 33 34 34 34 33 34 34 35 35 36 35 35 35 35 35 35 36
10 16 32 33 33 28 23 19 16 11 14 7 9 10 10 21 24 30 30 32 30 27 29 30 31 31 32 33 34 34 33 33 34 34 34 34 34 34 34 34 34 34 34 34
16 14 27 32 32 30 25 21 16 16 0 -4 1 3 14 18 20 29 30 31 29 27 28 29 30 30 31 32 33 34 33 32 33 34 33 33 34 34 35 35 34 34 33 33
14 8 19 28 27 23 24 21 20 16 10 -2 -10 6 18 20 25 26 30 31 29 25 25 27 29 30 31 31 32 32 32 32 32 33 33 33 34 34 34 34 34 34 34 34
20 7 10 14 25 25 26 21 16 6 4 12 6 5 12 16 19 24 28 30 29 24 24 24 28 30 30 30 31 31 31 30 32 33 33 33 34 35 34 34 34 34 33 33
19 9 3 4 18 24 25 23 21 16 16 12 -2 -5 9 16 24 26 27 29 30 25 24 24 28 29 30 30 30 30 30 30 32 33 33 33 34 33 32 32 31 30 32 33
20 11 4 -1 -1 18 17 23 23 17 18 6 6 -1 5 12 15 17 21 25 26 25 26 26 28 29 30 29 30 30 29 29 30 30 32 33 31 28 25 25 26 26 25 26
23 11 12 12 9 13 10 10 22 21 17 12 13 14 16 19 21 22 22 22 23 22 25 28 30 30 29 29 29 30 29 26 25 24 24 27 26 23 23 22 23 24 25 25
26 14 20 19 23 22 20 21 18 18 20 19 20 20 22 23 24 24 23 23 22 23 24 28 30 30 29 29 29 30 29 24 24 21 20 22 22 22 21 21 22 22 23 23
24 20 24 25 25 24 23 24 25 23 21 22 21 23 24 23 23 23 25 25 23 23 24 27 30 30 29 29 30 30 27 23 21 18 18 19 20 21 20 20 19 19 20 22
25 23 25 23 24 20 24 25 25 24 24 23 23 24 25 27 27 28 29 29 29 27 27 29 30 30 31 31 31 30 26 22 18 18 18 17 19 20 21 21 19 18 18 19
27 24 23 23 23 23 23 17 19 20 21 24 25 27 28 28 27 28 28 28 28 30 31 31 31 31 32 32 31 30 25 20 19 21 21 18 18 19 19 19 18 18 18 18
28 27 24 24 23 21 20 23 23 18 21 27 28 27 26 27 25 27 27 28 28 29 31 32 33 32 32 31 31 28 26 22 21 23 26 23 20 21 20 19 19 18 19 19
25 26 24 24 24 25 26 25 24 21 23 28 28 29 31 30 30 30 28 28 30 32 33 33 32 31 30 31 29 27 25 23 24 29 27 23 21 22 21 20 19 19 19 18
24 24 24 25 24 22 29 25 22 27 32 34 35 34 33 30 28 29 30 31 32 33 34 34 30 28 27 27 25 24 25 27 29 28 27 24 22 21 20 21 21 21 19 18
24 25 24 26 26 29 30 30 33 35 35 33 30 29 29 29 30 31 32 33 34 34 33 31 28 28 29 29 28 27 26 25 24 22 21 19 18 18 18 19 20 20 17 15
26 26 25 27 28 29 34 34 33 31 28 30 31 32 32 31 31 31 31 31 31 30 30 29 29 26 22 19 20 21 20 21 20 19 17 16 16 16 17 17 18 19 18 16
28 26 27 27 31 33 32 29 30 31 31 29 28 28 27 27 25 26 26 26 25 26 27 26 25 22 22 22 21 21 22 22 22 20 18 18 17 17 17 18 18 18 18 19
31 29 30 30 32 27 27 28 30 27 24 23 24 22 21 23 21 19 19 18 19 20 21 23 22 22 23 22 20 20 21 22 21 20 19 18 19 19 19 19 20 23 25 25
Wind_Speed
3 6 9 7 4 5 7 4 2 1 2 6 5 12 16 13 8 7 4 1 5 8 5 8 8 7 6 3 2 1 3 3 4 4 5 4 5 6 4 4 5 5 6 6
3 8 5 5 5 7 5 3 1 1 0 4 7 21 12 5 3 1 1 3 7 9 9 9 8 6 4 2 3 3 4 4 4 3 3 3 5 5 6 5 5 6 6 7
5 7 3 3 5 5 5 1 0 2 6 1 12 9 4 3 3 3 3 4 7 10 11 9 7 6 5 5 5 5 5 5 5 4 3 4 4 5 5 6 8 7 9 8
9 2 4 5 5 2 3 2 2 2 5 5 5 10 5 6 6 5 6 8 9 9 8 7 7 6 7 7 6 6 6 7 6 5 4 6 6 8 8 10 9 11 9 9
2 3 4 4 2 3 3 2 3 2 2 4 1 4 3 3 9 12 10 9 8 7 7 7 7 8 7 6 5 5 6 7 7 7 7 6 7 8 9 10 11 10 9 8
6 2 4 3 5 5 10 3 2 2 0 5 1 2 4 4 2 11 12 10 9 8 7 8 8 7 6 5 5 6 6 7 7 7 7 7 8 10 10 11 11 11 11 10
2 4 2 2 4 3 1 1 3 3 2 5 2 3 11 2 2 2 13 13 10 8 9 10 9 7 5 5 4 4 6 6 7 8 8 8 8 8 9 10 10 12 12 11
5 3 2 4 2 1 2 1 3 5 4 3 3 7 3 2 1 1 4 10 10 10 9 10 8 6 5 3 3 4 5 6 7 8 8 8 8 7 8 8 10 9 10 10
4 2 1 3 0 1 3 4 1 2 1 3 4 6 6 2 3 3 8 12 13 13 12 12 9 8 6 3 2 3 5 6 6 7 7 7 7 8 9 9 9 9 9 10
4 4 1 2 1 6 1 6 2 1 3 5 5 6 7 3 6 7 11 14 14 14 13 13 11 8 6 4 1 1 3 4 5 6 6 6 7 7 8 7 9 9 9 9
2 1 3 2 6 6 4 3 1 1 3 4 5 4 4 4 3 8 10 13 14 15 15 15 13 9 6 4 2 1 2 4 5 6 6 6 6 7 7 7 8 9 9 9
1 1 3 1 2 3 2 2 5 5 4 3 3 9 2 5 6 6 10 12 14 16 17 16 14 10 7 3 1 2 3 4 5 6 6 6 6 7 7 8 8 8 9 9
3 1 2 1 2 1 4 5 4 2 2 8 6 4 1 3 3 3 9 13 13 13 13 13 13 10 6 3 2 2 3 4 4 5 6 7 7 8 9 10 10 9 10 10
2 2 4 4 1 3 5 8 12 11 7 10 19 24 13 7 10 15 12 9 10 12 13 13 12 9 5 3 4 4 3 3 4 5 6 7 8 9 10 10 10 10 10 10
2 3 3 8 9 8 10 12 15 21 24 14 23 14 21 18 21 16 13 14 13 14 14 13 12 9 7 6 6 5 3 4 4 6 7 8 8 9 10 10 10 10 10 10
1 3 2 6 3 8 12 19 21 24 27 26 28 33 14 5 10 12 11 12 13 11 13 14 12 10 9 7 6 4 4 4 4 6 8 7 8 9 9 9 10 10 10 10
5 5 4 5 1 7 15 17 17 11 10 15 19 9 11 16 14 12 15 14 15 11 9 12 14 12 9 6 5 5 5 4 6 7 8 8 9 10 11 11 11 11 11 11
5 4 3 5 4 8 3 2 4 9 1 9 12 11 9 11 9 8 12 15 16 12 7 7 8 6 6 5 5 5 6 7 8 8 8 8 9 11 12 12 12 12 12 12
3 4 4 5 6 12 9 3 2 2 2 5 5 8 11 14 3 4 16 17 16 15 11 6 5 6 6 6 6 7 9 8 7 9 10 11 11 13 14 14 14 13 13 14
4 2 9 2 6 7 4 1 3 1 6 4 6 9 12 13 8 10 19 19 19 17 12 8 7 6 7 8 7 8 10 8 10 10 13 13 13 13 15 16 17 15 13 16
5 6 17 16 10 9 0 5 4 6 2 2 6 10 13 12 13 21 19 17 17 15 10 7 8 9 8 6 6 8 9 12 11 11 12 13 14 14 15 17 17 16 17 17
7 10 8 8 8 11 5 2 4 3 4 6 9 11 14 16 16 14 14 14 13 13 12 10 10 10 6 5 5 9 12 13 11 11 14 16 17 15 15 16 18 17 17 19
7 8 4 11 5 5 9 11 7 8 6 9 11 14 14 15 14 13 12 12 12 14 13 10 7 8 9 8 7 11 14 12 13 14 16 17 17 17 16 16 17 18 18 19
6 4 6 4 2 5 6 7 4 4 7 6 5 8 9 12 14 15 16 16 15 14 12 9 9 10 11 11 10 12 14 12 12 15 17 18 18 19 19 18 16 17 19 20
4 6 5 4 5 5 4 2 2 1 1 3 5 6 8 10 13 13 15 17 17 17 14 10 11 11 13 14 15 16 17 14 15 17 18 18 18 19 19 19 19 19 20 20
8 13 9 5 6 4 4 5 5 2 3 4 5 8 10 11 15 16 17 19 19 19 19 16 16 16 17 17 17 18 17 15 17 18 18 17 18 18 18 19 20 19 24 29
Wind_Direction
26 119 132 116 71 88 107 116 154 124 23 314 266 275 277 285 268 259 275 284 160 158 123 134 132 131 135 136 134 13 340 349 330 335 340 339 346 334 324 330 321 310 320 313
101 104 105 99 96 100 96 133 188 239 287 311 304 290 283 239 219 232 170 132 146 141 137 138 138 139 128 98 56 30 14 350 348 336 338 312 321 310 311 313 315 315 311 306
106 114 131 127 108 119 68 98 132 295 314 256 314 267 198 179 173 147 147 125 136 146 146 147 145 129 112 75 54 53 38 17 13 355 325 317 296 287 304 332 325 326 309 299
78 66 127 112 91 340 161 97 100 350 322 284 359 291 234 200 201 196 173 167 156 150 146 144 140 111 95 81 74 67 58 42 28 13 357 345 329 322 323 318 313 316 309 301
86 106 104 93 58 347 117 115 79 26 328 321 203 254 240 173 223 208 190 177 170 157 151 137 118 106 93 83 68 61 53 42 31 25 15 350 333 323 318 318 321 327 329 321
90 60 41 76 65 70 134 112 78 85 5 254 57 264 271 208 236 194 188 181 170 155 135 123 119 119 108 87 65 51 41 36 27 21 13 359 341 332 330 334 332 336 331 332
77 36 54 62 107 106 149 55 295 288 236 263 150 261 259 265 231 225 191 183 171 159 156 151 145 130 105 83 58 43 29 25 14 9 2 354 345 335 331 335 331 330 331 333
158 182 30 7 32 74 113 211 240 270 264 312 157 248 248 37 240 293 201 175 164 167 166 161 151 143 141 126 76 39 22 13 6 358 351 347 345 337 332 333 328 324 326 327
142 133 83 54 69 297 157 199 109 119 86 278 246 268 232 314 195 196 179 176 181 180 176 171 171 171 163 154 94 27 12 2 354 345 340 341 340 338 334 333 331 331 327 325
172 124 193 137 176 55 271 137 141 197 264 261 244 271 240 5 212 199 190 195 191 188 186 186 184 179 179 177 158 35 358 335 333 335 336 336 339 343 340 341 342 339 336 335
147 242 151 191 206 188 154 196 183 318 239 257 287 249 197 249 279 225 213 206 201 200 200 198 194 189 187 192 193 314 323 330 336 339 340 340 343 344 342 340 340 342 338 341
36 70 158 125 57 359 322 265 217 237 214 235 305 282 168 268 282 265 233 219 214 212 209 206 200 197 200 207 230 301 323 325 338 339 331 327 325 329 326 331 337 339 342 343
177 190 180 182 147 130 236 207 213 116 22 223 256 262 226 285 287 242 246 237 228 226 218 210 204 207 209 217 248 282 318 323 323 319 316 315 321 323 323 324 328 329 329 329
152 159 234 267 116 123 206 201 208 206 209 239 232 266 255 265 299 309 296 274 269 242 224 215 210 209 206 218 235 246 261 289 311 311 309 305 310 315 315 314 315 319 324 323
182 254 231 277 254 237 252 242 212 211 228 237 273 262 286 312 313 319 305 299 288 253 229 220 215 210 209 224 235 245 269 297 309 305 303 304 310 313 313 314 318 318 319 319
211 233 170 278 246 229 256 249 243 239 249 251 267 276 308 340 334 337 338 338 320 289 245 219 205 207 214 229 244 253 265 276 288 294 293 294 298 301 302 307 312 313 312 313
184 188 187 254 257 294 273 247 217 221 228 235 253 280 335 331 338 344 344 348 338 320 272 223 210 210 216 232 252 267 282 289 282 281 287 289 292 295 300 305 308 308 310 310
182 191 218 280 295 259 55 103 207 215 89 236 270 315 358 343 344 44 25 7 2 353 324 248 227 233 240 257 259 271 266 262 263 274 288 290 289 292 297 299 300 303 306 303
243 213 256 263 246 312 289 45 31 206 111 31 80 42 18 359 285 91 13 360 349 340 323 281 259 265 262 275 280 262 260 265 281 293 293 291 288 292 296 295 297 297 297 295
181 238 224 183 258 271 87 147 315 229 248 91 71 30 7 357 348 329 338 332 325 323 310 275 276 285 284 287 272 258 269 276 280 291 291 288 281 281 287 288 287 288 283 288
154 199 221 234 257 270 10 302 314 249 351 60 15 0 347 334 313 306 313 316 319 317 319 317 308 300 302 309 283 279 287 280 290 293 290 284 278 278 280 284 282 283 284 285
200 186 196 202 234 263 8 134 231 62 61 2 341 324 306 294 300 307 316 326 336 337 330 324 311 307 313 303 283 286 282 286 291 286 284 284 285 282 277 276 277 278 276 279
245 224 215 203 239 102 68 100 76 37 347 317 299 306 314 309 318 328 327 327 321 315 312 311 303 305 305 298 282 282 284 296 296 293 289 288 287 285 282 279 281 283 284 283
224 201 236 246 213 177 88 61 33 278 277 312 336 333 334 326 325 322 321 318 314 310 304 299 294 293 294 299 293 282 288 293 290 286 285 286 287 288 289 287 279 277 281 284
261 176 237 247 156 149 147 187 218 268 326 329 329 319 312 314 315 317 313 309 308 304 296 283 274 277 283 289 287 286 283 281 278 279 280 280 281 282 284 282 280 279 274 271
202 245 247 270 177 230 253 196 191 224 279 296 301 313 317 312 307 311 306 306 305 301 299 286 274 270 280 288 286 285 284 271 273 279 284 283 282 280 277 279 282 270 262 272